User: anonymous   Login
Location: Bay Ridge
(40.6340°N, 74.0146°W)
Time: 09:55:56
(UTC+00:00)
Language:

COBE Rocket - Orbit

View from above orbital plane
View from above orbital plane
View from above satellite
View from above satellite

Ground track
Ground track

The orbit data is extracted from the following two-line orbital elements,

1 20323U 89089B   20018.47349824 +.00000026 +00000-0 +15830-4 0  9995
2 20323 097.0672 188.6370 0071347 347.5186 012.4241 14.48330275571017
Epoch (UTC): 18 January 2020 11:21:50
Eccentricity: 0.0071347
inclination: 97.0672°
perigee height: 680 km
apogee height: 782 km
right ascension of ascending node: 188.6370°
argument of perigee: 347.5186°
revolutions per day: 14.48330275
mean anomaly at epoch: 12.4241°
orbit number at epoch: 57101

The dashed part of the orbit path shows where the satellite is in the earth's shadow,  

DLR